Current weather by "City, St" or "zip code"  
 

Current Conditions: HOUSTON EXEC

Clear


78.8 F

Last Updated on Jun 17 2024, 10:55 PM CDT
Humidity: 84%
Wind Speed: SE 10.3 mph
Barometer 29.89 in
Dewpoint: 73.4 F
Visibility: 10.00 mi
Precip: --
Heat Index: 82.0 F
Wind Chill: NA
Current conditions at:

HOUSTON EXEC (KTME)

Lat: 29.81 Lon: 95.9

active severe weather and emergency alerts image image weather storm and storm spotter reports image weather observation monitoring service image
Active
Alerts
Storm Reports Obs
Monitoring

Sign-up For Email & Text Message Weather Alert Notification Services



Advertise Here

Observation History for HOUSTON EXEC


Time Wind
(mph)
Vis
(mi)
Weather Precip (in) Temperature (F) Relative
Humidity
Wind
Chill
(F)
Heat
Index
(F)
Pressure
Air Dwpt altimeter
(in)
sea level
(mb)
Rmks
10:55 PM CDT SE 10.3 10.00 Clear -- 78.8 73.4 84% NA 82.0 29.89 1012.2
10:35 PM CDT 8.1 10.00 Clear -- 78.8 73.4 84% NA 82.0 29.88 1011.9
09:35 PM CDT 11.4 10.00 Clear -- 78.8 75.2 89% NA 82.4 29.87 1011.5
09:15 PM CDT 16.1 10.00 Clear -- 80.6 73.4 79% NA 85.3 29.87 1011.5
08:55 PM CDT 18.3 10.00 Clear -- 80.6 73.4 79% NA 85.3 29.86 1011.2
07:35 PM CDT 9.00 Mostly Clear -- 82.4 75.2 79% NA 89.4 29.85 1010.8
06:55 PM CDT 10.00 Mostly Clear -- 86.0 73.4 66% NA 93.4 29.83 1010.2
05:55 PM CDT 10.00 Mostly Clear -- 89.6 75.2 63% NA 100.2 29.82 1009.8
05:35 PM CDT 9.00 Partly Cloudy -- 89.6 77.0 67% NA 102.6 29.82 1009.8
04:15 PM CDT 10.00 Mostly Clear -- 91.4 77.0 63% NA 105.1 29.82 1009.8
03:55 PM CDT 12.8 10.00 Clear -- 91.4 77.0 63% NA 105.1 29.82 1009.8
03:35 PM CDT 10.00 Clear -- 91.4 75.2 59% NA 102.7 29.83 1010.2
02:55 PM CDT 11.4 10.00 Partly Cloudy -- 89.6 78.8 71% NA 105.3 29.83 1010.2
02:35 PM CDT S 9.2 10.00 Clear -- 87.8 78.8 75% NA 102.4 29.83 1010.2
02:15 PM CDT S 8.1 10.00 Clear -- 86.0 80.6 84% NA 101.8 29.85 1010.8
01:35 PM CDT S 8.1 9.00 Partly Cloudy -- NULL 80.6 % NA NA 29.85 1010.8
01:15 PM CDT 11.4 0.25 Heavy Rain -- NULL 78.8 % NA NA 29.86 1011.2
11:35 AM CDT SE 12.8 9.00 Mostly Cloudy -- 89.6 77.0 67% NA 102.6 29.87 1011.5
11:15 AM CDT 10.00 Partly Cloudy -- 89.6 77.0 67% NA 102.6 29.88 1011.9
08:15 AM CDT 7.00 Clear -- NULL % NA NA M
07:15 AM CDT SE 5.8 7.00 Clear -- 78.8 77.0 94% NA 82.8 29.85 1010.8
06:35 AM CDT 6.9 6.00 Fog/Mist -- 78.8 77.0 94% NA 82.8 29.84 1010.5
06:15 AM CDT 5.8 7.00 Clear -- 78.8 77.0 94% NA 82.8 29.84 1010.5
05:55 AM CDT 5.8 7.00 Clear -- 78.8 77.0 94% NA 82.8 29.84 1010.5

Regional Weather Observation


HOUSTON EXEC (KTME)

Clear
78.8 F

HOUSTON/DW HOOKS (KDWH)

Clear
80.1 F

COLUMBUS (K66R)

Clear
74.8 F

COLLEGE STATION (KCLL)

Clear
80.1 F

HOUSTON/INTNL (KIAH)

Clear
81.0 F

HOUSTON/SUGAR LA (KSGR)

Clear
81.0 F

Advertise Here


Advertise Here